Theta_e
299 302 301 299 299 299 296 296 291 293 295 296 296 298 298 300 301 299 298 297 296 296 295 295 296 296 298 298 298 299 300 298 298 299 300 300 300 301 301 301 302 302 302 302
296 301 300 297 298 298 298 298 295 294 292 297 300 299 299 299 299 298 298 297 297 297 296 296 296 297 297 297 298 299 298 298 300 300 301 301 301 301 301 301 301 301 300 301
288 298 297 289 295 297 297 298 295 289 292 298 298 299 298 298 299 298 297 297 296 296 295 295 296 297 295 296 298 298 298 300 301 301 301 301 301 301 300 300 299 301 299 298
287 290 280 294 303 302 299 299 298 298 300 301 298 297 298 298 296 296 297 296 296 294 294 295 297 297 297 297 298 298 299 300 301 301 301 301 301 300 300 299 299 299 300 299
284 281 292 298 300 299 297 296 301 300 301 301 298 297 295 298 297 295 293 295 295 295 298 295 296 297 297 297 298 299 300 300 301 301 300 300 299 299 299 298 298 302 303 300
290 283 283 295 301 306 303 292 301 300 299 299 298 290 292 297 298 296 296 296 294 295 295 296 297 297 296 297 297 298 300 301 301 301 300 298 297 297 296 296 298 300 301 303
290 289 293 300 303 305 290 292 302 300 299 296 293 294 296 297 296 295 295 294 295 295 294 295 296 297 297 296 297 300 305 301 301 302 299 297 294 294 294 297 296 294 295 299
293 288 286 304 303 294 297 299 300 299 298 296 295 296 296 296 293 293 293 294 296 294 294 296 297 296 295 296 299 301 302 302 300 301 301 297 294 293 294 293 293 293 293 293
291 290 298 300 298 300 299 296 296 295 295 296 295 294 295 293 292 294 293 294 294 294 295 296 297 297 297 299 300 300 298 297 297 298 297 296 293 292 292 292 292 295 296 296
294 297 299 300 300 299 299 296 297 297 295 295 293 294 293 293 295 292 293 293 294 295 295 296 299 301 301 301 301 299 299 299 300 297 293 293 294 295 296 294 295 295 295 295
294 297 299 300 299 298 298 298 297 297 296 295 294 294 296 295 292 292 293 294 295 295 297 299 301 301 303 303 299 296 296 298 298 297 293 294 296 296 296 295 294 294 293 294
290 298 297 296 298 299 297 296 296 296 295 296 295 293 293 292 292 293 294 295 297 298 298 299 300 299 302 301 298 296 297 297 297 297 294 295 297 297 294 294 293 293 293 292
297 301 299 299 299 299 297 296 297 296 296 297 296 294 292 292 293 296 296 298 298 298 299 301 298 299 300 299 298 297 296 299 296 295 297 297 297 296 294 296 295 294 293 293
303 301 297 298 295 298 298 299 298 298 299 298 295 295 293 293 296 298 299 300 299 301 298 296 296 297 299 300 299 298 296 297 297 297 297 296 296 296 295 295 294 295 295 294
301 300 298 298 297 296 297 296 296 296 297 294 294 293 295 295 297 301 300 300 298 297 298 297 296 297 300 299 298 297 297 298 298 297 297 297 297 297 297 296 295 295 296 296
300 299 298 297 296 295 295 294 294 294 295 294 293 294 296 300 301 301 303 301 295 293 295 296 297 299 301 300 298 298 299 296 296 299 299 299 299 298 297 297 296 296 296 295
297 295 296 295 294 294 293 295 295 296 295 293 293 297 299 300 301 302 302 299 295 295 295 296 298 302 301 299 298 299 299 300 296 301 300 300 300 299 299 298 297 296 296 294
298 297 296 296 295 294 295 298 297 293 294 294 298 300 300 297 297 298 298 298 297 297 296 296 300 301 301 300 298 299 299 300 300 300 301 301 301 301 300 299 299 298 298 297
299 297 297 296 296 296 297 297 294 295 295 297 300 299 301 302 301 297 298 297 296 296 295 297 298 300 299 299 298 298 300 300 300 300 301 299 302 302 300 300 300 300 300 299
298 298 298 297 299 299 297 298 295 296 296 298 299 301 301 302 300 297 296 294 294 295 294 297 298 298 301 299 296 297 298 298 298 298 300 301 301 301 301 297 300 300 300 300
298 298 297 298 299 299 298 296 297 295 297 299 300 300 299 297 299 297 295 294 295 293 294 295 297 297 299 297 298 299 298 298 298 297 296 299 300 300 300 300 301 301 301 301
299 297 297 298 298 295 295 297 297 298 299 300 303 304 301 295 296 295 294 294 295 293 293 293 292 290 294 292 297 298 298 298 297 296 296 296 297 298 299 300 301 302 301 301
297 297 297 298 297 294 296 297 297 299 300 302 301 301 295 295 293 291 291 294 294 293 294 293 288 287 288 298 297 297 297 297 294 294 294 295 295 296 297 297 299 300 299 299
297 296 296 299 295 294 295 296 297 299 303 303 304 306 297 291 291 292 291 292 291 292 294 294 292 288 291 297 297 294 293 293 292 292 293 290 294 295 295 295 295 296 297 297
297 296 297 297 293 294 296 295 296 298 302 303 303 301 303 295 293 294 293 294 291 293 293 287 287 289 295 295 294 293 292 292 292 293 293 293 293 293 293 293 292 292 292 292
295 294 294 296 293 296 295 294 294 300 300 298 299 301 298 297 297 296 295 295 297 294 293 293 295 295 295 294 294 293 293 293 294 292 292 292 291 291 291 290 291 291 290 290
296 294 293 293 294 297 295 294 297 299 299 302 302 301 301 298 297 296 294 294 294 294 293 293 294 294 294 293 293 293 293 293 291 293 293 293 292 291 291 290 289 289 288 288
Wind_Speed
5 5 4 5 9 8 4 8 6 5 6 3 7 9 6 6 7 7 6 6 7 7 6 6 6 6 6 6 6 7 7 7 8 8 7 7 7 7 6 6 5 6 5 5
4 5 6 6 9 5 6 5 11 16 9 4 6 6 5 5 6 6 8 8 4 4 5 6 5 5 6 6 6 6 7 8 9 7 7 7 7 6 6 6 6 6 6 5
5 5 5 5 7 13 12 11 6 7 3 4 4 4 2 4 6 6 4 2 4 4 3 5 5 5 6 7 7 7 7 8 7 6 7 7 6 6 7 6 5 5 5 4
3 5 2 4 11 15 16 11 7 7 5 3 6 5 6 5 5 4 3 4 4 4 5 6 6 6 6 7 8 7 7 7 6 7 6 7 6 6 6 4 5 3 3 2
3 3 4 4 6 6 2 5 6 7 6 7 9 7 5 5 4 3 2 3 5 5 4 5 6 7 6 7 7 6 7 7 7 6 6 6 7 7 6 5 4 3 2 4
3 2 4 1 12 10 4 3 9 6 6 3 1 3 1 5 4 1 2 3 4 5 4 6 7 6 7 7 6 7 7 7 5 4 5 6 6 6 4 3 5 4 5 5
1 1 2 3 6 15 5 4 1 4 5 4 3 2 4 5 1 2 3 4 4 5 4 6 7 6 7 6 6 6 5 6 5 5 6 6 5 5 6 6 6 7 7 7
3 2 3 2 2 3 3 6 6 6 4 6 5 4 4 3 1 4 5 5 7 6 7 8 7 4 5 6 7 6 6 6 5 6 6 5 7 6 6 6 6 6 5 5
5 5 1 3 3 6 7 7 3 5 4 6 5 3 1 2 5 5 5 5 5 6 8 8 6 2 3 5 4 6 6 6 4 6 5 5 6 6 4 5 5 6 5 4
5 2 5 7 4 7 8 9 7 6 6 6 4 3 4 4 5 4 4 4 4 6 7 7 6 5 4 6 6 6 5 6 5 4 5 5 3 4 5 5 5 5 5 5
4 4 7 4 6 9 9 8 8 7 6 4 4 4 6 4 3 3 5 5 5 6 6 7 8 6 4 4 5 5 5 4 5 4 4 3 4 3 4 3 3 4 4 4
6 7 5 3 6 7 9 7 6 7 4 5 5 5 3 2 2 3 6 6 6 6 6 6 5 6 5 6 5 5 5 5 5 4 4 4 3 3 1 1 5 9 10 8
6 4 9 9 6 4 8 7 6 6 5 4 4 2 2 2 3 5 7 6 6 6 5 5 5 5 6 6 6 6 5 5 4 4 4 4 4 4 5 4 6 7 11 10
11 13 8 4 6 6 10 8 7 5 5 4 3 3 3 4 6 7 6 6 6 5 5 5 6 6 5 6 7 6 6 10 4 5 4 4 5 4 4 4 5 4 6 7
8 6 8 9 7 7 6 5 6 5 4 3 3 3 4 6 6 6 6 4 5 6 6 7 7 6 7 9 10 7 5 5 4 4 4 4 3 4 4 4 4 4 4 6
11 15 11 10 8 7 7 5 6 4 3 1 2 4 6 6 7 7 4 4 5 4 6 6 6 5 7 8 6 4 6 9 6 4 3 4 5 5 5 5 5 5 5 5
15 7 7 7 7 5 5 3 5 4 1 1 3 5 7 7 6 4 5 3 3 5 5 6 6 7 8 5 4 3 3 4 8 5 6 5 5 5 4 5 5 5 4 4
11 8 7 8 7 7 6 5 5 3 1 2 5 6 6 5 5 2 5 3 3 6 6 5 6 7 5 4 3 2 3 3 4 6 7 8 6 5 6 6 6 6 5 6
11 10 8 8 7 6 5 5 3 2 2 3 5 6 6 5 2 3 4 4 5 6 4 5 10 7 6 3 2 1 3 4 5 5 7 7 7 7 6 7 7 6 5 6
11 9 9 7 7 5 5 3 2 2 3 4 6 6 6 3 3 5 4 5 2 2 2 6 6 6 5 4 2 2 4 4 4 4 4 4 5 4 4 6 4 5 7 8
11 9 8 7 6 6 4 3 2 1 3 4 5 6 5 3 5 4 4 4 2 4 6 7 5 3 3 3 4 3 4 5 5 4 1 3 3 4 5 4 4 4 5 6
10 8 7 7 6 4 2 1 1 2 4 5 5 5 4 4 5 4 1 4 3 4 4 3 2 1 2 3 2 3 3 3 4 4 4 4 3 4 5 6 7 6 5 6
8 6 6 6 6 4 2 2 2 2 3 3 4 6 2 3 2 5 3 2 3 5 4 2 3 1 3 2 1 1 3 5 5 5 5 5 5 5 7 7 7 7 7 6
7 6 6 6 6 4 3 2 2 3 3 5 4 4 2 3 3 1 1 2 5 2 0 1 3 5 5 3 4 4 5 5 5 5 5 6 5 7 7 7 8 7 7 8
6 6 6 6 5 3 3 2 5 5 3 4 5 4 6 4 4 3 2 2 1 3 3 2 2 5 4 5 5 5 4 4 5 5 5 6 6 7 7 7 7 7 7 7
7 5 4 6 5 3 2 1 2 3 3 4 4 4 3 3 3 2 1 2 2 5 4 4 4 5 5 6 6 6 5 5 7 5 6 5 6 6 6 6 6 7 6 6
5 5 4 3 2 3 2 2 1 2 4 4 4 4 3 4 3 2 3 4 5 5 5 4 5 6 6 5 6 5 5 5 6 6 5 6 6 5 6 5 5 5 5 6
Wind_Direction
238 262 311 294 311 301 265 228 166 223 131 113 123 124 135 134 117 105 97 71 43 28 5 360 350 338 348 338 327 328 326 307 301 301 302 303 311 317 320 318 317 320 329 10
274 273 302 304 296 62 19 47 64 83 68 71 101 100 88 76 102 84 57 47 17 11 13 342 325 342 331 317 325 323 309 309 311 311 316 326 327 327 330 332 339 4 27 65
276 338 333 11 339 85 76 51 71 67 46 157 108 99 107 78 74 81 85 51 1 336 331 324 325 335 323 319 318 309 308 311 312 316 323 333 331 341 344 341 1 45 78 61
247 9 20 180 83 96 84 61 65 87 70 125 105 79 71 60 119 107 52 2 310 333 355 330 337 328 316 318 310 308 314 313 321 334 336 340 348 352 349 357 24 62 107 89
133 179 269 27 24 343 38 70 30 96 73 79 136 122 48 83 85 93 31 333 332 347 327 319 324 311 318 311 312 328 326 313 323 329 340 352 3 359 347 1 20 14 19 38
138 128 244 26 334 313 223 71 9 76 56 44 27 347 178 112 90 76 311 314 308 309 308 320 308 318 320 320 334 334 319 311 325 337 37 29 13 358 345 9 14 24 27 21
131 280 265 211 345 49 32 245 357 73 67 59 97 214 124 112 74 326 323 338 333 340 327 297 300 315 320 323 340 312 326 346 3 19 43 48 30 8 359 17 42 26 20 8
76 238 308 156 1 141 156 63 96 66 60 84 96 86 98 150 236 345 360 355 346 348 334 317 312 321 334 347 312 325 334 344 25 53 53 44 45 19 18 20 26 8 5 3
153 199 232 46 30 55 98 115 99 94 62 92 90 88 91 21 11 8 7 343 330 335 320 312 318 313 72 293 318 333 342 337 34 59 55 51 46 27 18 13 15 11 356 344
90 53 114 94 76 89 103 104 95 89 79 84 102 43 23 3 2 1 339 325 316 323 318 322 329 322 294 335 354 355 347 356 45 88 63 48 64 52 29 20 11 0 346 344
59 84 82 60 102 113 98 106 105 85 90 83 62 43 34 34 6 331 320 306 310 309 322 325 321 331 333 353 353 10 21 38 46 66 67 60 48 26 55 34 10 350 343 325
200 195 141 131 132 124 104 105 105 118 85 59 56 31 37 11 343 316 305 306 316 317 335 319 345 338 337 9 27 40 51 37 36 43 33 20 21 35 36 7 13 21 6 25
151 140 106 115 109 105 111 111 100 96 84 65 32 15 350 5 302 299 295 300 313 315 320 327 356 42 24 57 58 56 55 53 40 29 22 15 15 13 4 1 37 23 18 23
110 114 102 187 149 129 110 118 113 97 70 61 1 352 12 345 314 306 314 317 339 35 12 350 27 45 30 57 52 45 42 42 30 26 25 27 20 13 1 8 11 8 359 20
115 73 115 124 106 104 119 125 100 91 70 38 345 354 3 318 311 307 333 19 52 38 19 26 52 62 54 62 56 40 31 35 35 41 32 9 354 356 11 29 28 27 10 12
115 120 128 122 121 111 118 114 109 88 72 0 347 337 300 294 301 313 5 37 60 25 21 66 60 73 73 69 56 45 51 24 14 11 18 341 5 28 38 39 40 36 32 12
114 118 115 114 124 120 126 123 100 96 120 345 300 299 296 303 311 360 107 82 75 60 51 80 85 84 76 68 65 28 14 9 359 15 19 20 23 26 27 40 50 52 39 11
94 93 110 127 130 126 125 98 93 132 197 292 297 306 310 351 332 81 139 118 17 35 38 82 103 92 85 75 74 45 343 12 6 17 25 33 36 36 37 45 47 47 43 40
103 107 102 101 115 114 112 107 138 208 348 315 329 315 303 331 92 110 100 79 59 71 10 101 124 114 103 113 82 28 352 348 22 24 36 22 33 36 41 48 53 52 46 48
109 102 103 104 103 112 105 121 155 44 321 313 322 330 315 305 171 98 81 77 52 170 91 117 124 140 135 177 210 315 323 339 21 36 44 34 10 23 39 30 25 30 55 67
123 122 118 110 106 102 116 144 95 72 283 297 325 338 339 69 129 114 103 88 349 88 76 82 95 106 149 195 230 270 299 320 353 44 67 189 210 313 348 47 50 41 56 61
131 130 128 124 121 117 142 132 222 270 311 327 328 349 24 77 103 70 49 152 202 140 95 78 78 19 146 112 213 280 303 355 5 31 51 51 36 36 36 45 70 77 57 56
128 129 127 125 130 159 176 213 249 330 302 295 8 14 27 172 152 111 80 310 151 157 112 123 121 42 335 130 61 45 24 59 68 64 57 56 55 48 51 49 58 57 54 50
126 127 122 109 126 148 167 231 301 316 320 357 359 327 151 104 29 306 199 104 108 47 182 206 87 78 75 69 75 88 81 73 70 70 65 55 51 53 50 51 50 44 47 49
134 130 129 131 144 175 175 272 327 15 1 4 323 330 189 211 147 215 190 159 103 74 117 235 167 100 89 89 91 82 78 77 75 71 63 62 62 62 59 59 56 59 55 50
140 150 156 154 167 175 186 78 20 310 359 4 346 3 344 234 211 197 322 343 53 103 88 95 97 95 92 91 90 88 82 76 77 73 77 70 70 65 65 58 55 54 52 51
117 112 116 113 152 174 134 142 80 343 9 10 321 320 333 249 192 144 116 98 100 101 98 94 95 93 97 94 85 78 80 80 81 84 75 76 73 74 70 66 61 56 54 56